Regional Weather Roundup
Issued by NWS Raleigh/Durham, NC

Home | Current Version | Previous Version | Text Only | Print | Product List | Glossary On
Versions: 1 2 3 4 5 6 7 8 9 10 11 12 13 14 15 16 17 18 19 20 21 22 23 24 25 26 27 28 29 30 31 32 33 34 35 36 37 38 39 40 41 42 43 44 45 46 47 48 49 50
000
ASUS42 KRAH 262210
RWRRAH
NORTH CAROLINA WEATHER ROUNDUP
NATIONAL WEATHER SERVICE RALEIGH NC
600 PM EDT THU MAR 26 2015

NOTE: "FAIR" INDICATES FEW OR NO CLOUDS BELOW 12,000 FEET WITH NO
SIGNIFICANT WEATHER AND/OR OBSTRUCTIONS TO VISIBILITY.

NCZ001-053-055-056-065-067-262300-
WESTERN NORTH CAROLINA

CITY           SKY/WX    TMP DP  RH WIND       PRES   REMARKS
ASHEVILLE      CLOUDY    67  51  56 S14G24    29.77F
JEFFERSON      CLOUDY    64  49  59 S6        29.76F
MORGANTON      CLOUDY    72  54  53 SW9       29.77F
HICKORY        CLOUDY    70  52  52 S21       29.72F
RUTHERFORDTON  CLOUDY    70  54  56 SW9G21    29.75F
MOUNT AIRY     CLOUDY    73  57  58 S7G16     29.73F
BOONE          CLOUDY    63  51  63 SW7       29.78F
$$

NCZ021-022-025-041-071-084-088-262300-
CENTRAL NORTH CAROLINA

CITY           SKY/WX    TMP DP  RH WIND       PRES   REMARKS
CHARLOTTE      CLOUDY    72  52  49 S9        29.77F
GREENSBORO     CLOUDY    72  54  53 SW17      29.74F
WINSTON-SALEM  CLOUDY    72  54  53 S13G20    29.74F
RALEIGH-DURHAM CLOUDY    72  56  57 SW18G25   29.76F
FORT BRAGG     CLOUDY    74  56  52 SW8       29.78F
FAYETTEVILLE   CLOUDY    75  56  51 SW13      29.79F
BURLINGTON     CLOUDY    73  54  51 S13G22    29.74F
LAURINBURG     CLOUDY    74  55  51 SW9       29.80F
$$

NCZ011-015-027-028-043-044-047-080-103-262300-
NORTHEASTERN NORTH CAROLINA

CITY           SKY/WX    TMP DP  RH WIND       PRES   REMARKS
ROCKY MT-WILSO PTSUNNY   73  57  57 S13       29.76F
GREENVILLE     PTSUNNY   73  57  56 SW14      29.80F
WASHINGTON     PTSUNNY   73  56  57 SW13G18   29.78F
ELIZABETH CITY MOSUNNY   70  60  70 SW18G24   29.76F
MANTEO         MOSUNNY   64  57  79 S16       29.78F
CAPE HATTERAS  MOSUNNY   67  58  72 SW15G25   29.84S
$$

NCZ078-087-090-091-093-098-101-262300-
SOUTHEASTERN NORTH CAROLINA

CITY           SKY/WX    TMP DP  RH WIND       PRES   REMARKS
LUMBERTON      CLOUDY    74  57  55 SW12      29.80F
GOLDSBORO      MOSUNNY   73  69  86 SW10      29.77F
KINSTON        CLOUDY    73  57  56 S12       29.80F
KENANSVILLE    CLOUDY    73  56  54 S3        29.82F
NEW BERN       PTSUNNY   73  56  54 S15       29.82S
CHERRY POINT   PTSUNNY   69  58  67 SW15G25   29.84S
BEAUFORT       PTSUNNY   64  60  87 S17       29.84F
JACKSONVILLE   CLOUDY    70  59  68 S12G21    29.83S
WILMINGTON     CLOUDY    70  59  68 S14G22    29.83F
$$



USA.gov is the U.S. government's official web portal to all federal, state and local government web resources and services.